Weather observations for the past three days for
Hamilton Municipal Airport
Metric (Imperial)
Date Time (cdt) Wind (kph) Vis. (km) Weather Sky Cond. Temperature (ºC) Relative Humidity Wind Chill (°C) Heat Index (°C) Pressure Precipitation (cm)
Air Dwpt 6 hour altimeter (cm) sea level (mb) 1 hr 3 hr 6 hr
Max. Min.
09 07:55 NW 15 16.09 Fair CLR 21 15 69% 75.82 0.0
09 07:35 N 4 16.09 Fair CLR 19 16 83% 75.82 0.0
09 07:15 W 17 16.09 Fair CLR 20 16 78% 75.77 0.0
09 06:55 W 13 16.09 Fair CLR 19 16 23.6 17.1 83% 75.74 0.0
09 06:35 S 9 16.09 Fair CLR 22 14 61% 75.67 0.0
09 06:15 NE 13 G 41 16.09 Partly Cloudy FEW050 SCT090 SCT110 21 15 69% 75.69 0.0
09 05:55 S 30 16.09 Partly Cloudy SCT070 SCT085 SCT110 20 17 83% 75.57 0.0
09 05:35 SW 24 14.48 Partly Cloudy SCT085 SCT100 SCT120 19 19 100% 75.87 0.0
09 05:15 W 28 9.66 Fog/Mist SCT075 BKN100 BKN120 19 19 100% 75.92 0.0
09 04:55 W 22 11.27 Thunderstorm in Vicinity Fog/Mist FEW003 SCT048 OVC075 19 19 100% 75.9 0.0 0.1
09 04:35 S 20 G 31 4.83 Thunderstorm in Vicinity Fog/Mist SCT004 BKN048 OVC075 19 19 100% 75.84 0.0
09 04:15 E 9 6.44 Thunderstorm Light Drizzle Fog/Mist SCT024 BKN034 OVC070 19 19 100% 75.9 0.0
09 03:55 N 13 6.44 Thunderstorm in Vicinity Fog/Mist SCT007 BKN014 OVC029 19 19 100% 75.95 0.0
09 03:35 N 19 4.02 Fog/Mist BKN002 OVC007 19 19 100% 75.95 0.0
09 03:15 N 15 1.21 Fog/Mist OVC002 18 18 100% 75.92 0.0
09 02:55 E 6 2.41 Thunderstorm in Vicinity Fog/Mist OVC002 18 18 100% 75.9 0.0
09 02:35 N 4 0.80 Fog OVC002 18 18 100% 75.92 0.0
09 02:15 S 9 0.40 Fog OVC002 18 18 100% 75.87 0.0
09 01:55 S 13 0.40 Fog OVC002 18 18 100% 75.9 0.0
09 01:35 S 13 0.40 Fog BKN002 OVC013 18 18 100% 75.84 0.0
09 01:15 SE 9 3.22 Fog/Mist SCT002 18 18 100% 75.82 0.0
09 00:55 SE 11 1.61 Fog/Mist CLR 18 18 22 17.1 100% 75.79 0.0
09 00:35 S 9 2.41 Fog/Mist CLR 17 17 100% 75.82 0.0
09 00:15 SE 7 3.22 Fog/Mist CLR 18 18 100% 75.82 0.0
08 23:55 SE 7 4.83 Fog/Mist SCT045 18 18 100% 75.84 0.0
08 23:35 SE 6 6.44 Fog/Mist SCT047 18 18 100% 75.84 0.0
08 23:15 SE 6 6.44 Fog/Mist FEW044 BKN050 19 18 94% 75.82 0.0
08 22:55 SE 6 6.44 Fog/Mist BKN050 19 19 100% 75.82 0.0
08 22:35 S 4 8.05 Fog/Mist BKN047 OVC050 19 19 100% 75.79 0.0
08 22:15 SE 6 8.05 Fog/Mist BKN046 OVC050 19 19 100% 75.79 0.0
08 21:55 S 9 8.05 Fog/Mist BKN048 19 19 100% 75.77 0.0
08 21:35 S 11 8.05 Fog/Mist SCT050 19 19 100% 75.74 0.0
08 21:15 S 13 9.66 Fog/Mist FEW050 19 19 100% 75.74 0.0
08 20:55 S 13 8.05 Fog/Mist CLR 19 19 100% 75.72 0.0
08 20:35 S 17 9.66 Fog/Mist CLR 20 20 100% 75.69 0.0
08 20:15 SE 15 11.27 Fog/Mist CLR 20 20 100% 75.69 0.0
08 19:35 SE 15 11.27 Partly Cloudy SCT060 22 20 88% 75.69 0.0
08 19:15 SE 17 12.87 Overcast OVC060 22 20 88% 75.69 0.0
08 18:55 S 15 12.87 Overcast FEW017 OVC060 22 20 24.1 18.4 88% 75.72 0.0
08 18:35 SE 17 12.87 Overcast OVC060 22 20 88% 75.69 0.0
08 18:15 SE 17 12.87 Overcast FEW019 OVC060 22 20 88% 75.69 0.0
08 17:55 SE 17 12.87 Overcast SCT019 OVC060 23 20 83% 75.69 0.0
08 17:15 SE 15 G 28 12.87 Mostly Cloudy SCT019 BKN060 24 20 78% 24 75.72 0.0
08 16:55 S 15 12.87 Partly Cloudy SCT019 23 20 83% 75.72 0.0
08 16:35 SE 15 12.87 Overcast OVC019 23 20 83% 75.74 0.0
08 16:15 S 17 12.87 Overcast OVC019 23 20 83% 75.77 0.0
08 15:55 SE 17 12.87 Overcast OVC017 23 19 78% 75.79 0.0
08 15:35 S 13 12.87 Overcast OVC017 22 19 83% 75.82 0.0
08 15:15 SE 17 12.87 Overcast OVC017 22 19 83% 75.84 0.0
08 14:35 SE 17 12.87 Overcast OVC017 21 19 88% 75.84 0.0
08 14:15 E 15 12.87 Thunderstorm in Vicinity OVC015 21 19 88% 75.87 0.0
08 13:55 SE 13 11.27 Overcast OVC013 20 18 88% 75.9 0.0
08 13:35 SE 11 11.27 Fog/Mist OVC013 20 18 88% 75.92 0.0
08 13:15 E 11 11.27 Fog/Mist OVC013 19 18 94% 75.95 0.0
08 12:35 SE 9 11.27 Overcast OVC013 19 17 88% 76 0.0
08 12:15 SE 9 12.87 Overcast OVC013 19 17 88% 76.02 0.0
08 11:55 SE 11 12.87 Overcast OVC013 18 17 94% 76.05 0.0
08 11:35 S 15 12.87 Overcast OVC013 18 17 94% 76.05 0.0
08 11:15 S 7 14.48 Overcast OVC013 18 16 88% 76.05 0.0
08 10:55 SW 4 14.48 Overcast OVC013 19 17 88% 76.05 0.0
08 10:35 E 7 14.48 Overcast OVC013 19 16 83% 76.02 0.0
08 10:15 SE 6 14.48 Overcast OVC013 17 15 88% 76.05 0.0
08 09:55 S 6 16.09 Overcast OVC013 16 15 94% 76.07 0.0
08 09:35 S 4 16.09 Overcast OVC015 16 15 94% 76.07 0.0
08 09:15 S 4 16.09 Overcast OVC015 16 15 94% 76.1 0.0
08 08:35 S 6 16.09 Overcast OVC015 15 15 100% 76.1 0.0
08 08:15 SW 6 14.48 Overcast OVC017 15 15 100% 76.12 0.0
08 07:55 SW 6 14.48 Overcast OVC017 15 15 100% 76.12 0.0
08 07:35 Calm 14.48 Overcast OVC017 14 14 100% 76.1 0.0
08 07:15 SE 4 14.48 Overcast OVC017 14 14 100% 76.1 0.0
08 06:55 SE 4 14.48 Overcast BKN015 OVC021 14 14 14.2 11.2 100% 76.1 0.0
08 06:35 E 6 14.48 Overcast BKN017 OVC023 14 14 100% 76.1 0.0
08 06:15 SE 6 14.48 Overcast OVC017 13 13 100% 76.1 0.0
08 05:55 SE 7 14.48 Overcast OVC019 13 13 100% 76.1 0.0
08 05:35 S 11 14.48 Overcast OVC017 13 13 100% 76.1 0.0
08 05:15 S 11 11.27 Mostly Cloudy BKN013 BKN018 13 13 100% 76.1 0.0
08 04:55 S 9 9.66 Fog/Mist FEW015 SCT050 12 12 100% 76.1 0.0
08 04:35 S 13 8.05 Fog/Mist SCT050 BKN065 BKN120 12 12 100% 76.07 0.0
08 04:15 SW 7 11.27 Fog/Mist BKN046 BKN060 13 13 100% 76.12 0.0
08 03:55 S 2 12.87 Overcast OVC044 13 13 100% 76.15 0.0
08 03:35 N 6 11.27 Fog/Mist OVC046 13 13 100% 76.15 0.0
08 03:15 N 6 9.66 Fog/Mist OVC049 12 12 100% 76.15 0.0
08 02:55 NW 9 8.05 Fog/Mist OVC049 12 12 100% 76.17 0.0
08 02:35 NW 4 11.27 Fog/Mist OVC049 12 12 100% 76.17 0.0
08 02:15 SW 6 8.05 Fog/Mist SCT046 SCT070 11 11 100% 76.15 0.0
08 01:55 SE 6 11.27 Fog/Mist SCT043 BKN080 12 12 100% 76.12 0.0
08 01:35 NE 6 14.48 Overcast BKN045 OVC080 13 13 100% 76.12 0.0
08 01:15 N 4 11.27 Overcast OVC047 13 13 100% 76.17 0.0
08 00:55 N 4 11.27 Overcast BKN049 OVC060 13 13 15.7 12.3 100% 76.17 0.0
08 00:35 NW 2 12.87 Overcast FEW049 BKN060 OVC075 13 13 100% 76.17 0.0
08 00:15 NW 4 14.48 Overcast FEW060 OVC070 13 13 100% 76.2 0.0
07 23:55 W 4 11.27 Overcast FEW049 OVC070 13 13 100% 76.23 0.0
07 23:35 NW 4 12.87 Overcast OVC070 13 13 100% 76.23 0.0
07 23:15 W 7 11.27 Overcast OVC070 13 13 100% 76.23 0.0
07 22:55 SW 7 14.48 Overcast OVC070 13 13 100% 76.25 0.0
07 22:35 SW 6 9.66 Fog/Mist BKN070 12 12 100% 76.25 0.0
07 22:15 S 6 11.27 Mostly Cloudy BKN070 13 13 100% 76.2 0.0
07 21:55 S 4 11.27 Partly Cloudy SCT080 13 13 100% 76.17 0.0
07 21:35 Calm 16.09 Mostly Cloudy BKN080 14 14 100% 76.17 0.0
07 21:15 SE 2 14.48 Partly Cloudy SCT085 13 13 100% 76.15 0.0
07 20:55 SE 4 16.09 Fair CLR 14 14 100% 76.15 0.0
07 20:35 NE 4 16.09 Fair CLR 15 15 100% 76.12 0.0
07 20:15 SE 4 16.09 Partly Cloudy SCT080 SCT120 15 15 100% 76.12 0.0
07 19:55 Calm 16.09 Overcast BKN080 OVC110 15 15 100% 76.15 0.0
07 19:35 S 9 16.09 Mostly Cloudy BKN100 BKN120 15 15 100% 76.17 0.0
07 19:15 S 6 16.09 Partly Cloudy SCT110 16 15 94% 76.17 0.0
07 18:55 S 7 16.09 Fair CLR 16 15 18.3 15 94% 76.2 0.0 0.03
07 18:35 Vrbl 4 16.09 A Few Clouds FEW120 15 15 100% 76.17 0.0
07 18:15 S 7 16.09 Light Rain SCT060 SCT090 BKN120 15 15 100% 76.23 0.0
07 17:55 S 13 12.87 Light Rain FEW060 FEW065 FEW120 15 15 100% 76.23 0.0 0.05
07 17:35 S 7 9.66 Light Drizzle Fog/Mist FEW060 SCT090 SCT110 16 15 94% 76.25 0.0
07 17:15 SW 13 12.87 Light Rain FEW110 16 15 94% 76.28 0.0
07 16:55 E 13 11.27 Light Rain Fog/Mist CLR 16 14 88% 76.17 0.0 0.03
07 16:35 E 2 11.27 Light Rain Fog/Mist FEW055 FEW065 FEW090 17 15 88% 76.28 0.0
07 16:15 SE 22 16.09 Partly Cloudy FEW055 FEW070 SCT090 17 13 77% 76.2 0.0
07 15:55 Vrbl 6 16.09 Fair CLR 18 12 68% 76.3 0.0
07 15:35 Vrbl 6 16.09 A Few Clouds FEW060 FEW100 18 12 68% 76.3 0.0
07 15:15 Vrbl 6 16.09 A Few Clouds FEW060 FEW100 18 12 68% 76.35 0.0
07 14:55 NE 9 16.09 A Few Clouds FEW110 18 12 68% 76.33 0.0
07 14:35 Vrbl 6 16.09 A Few Clouds FEW110 18 12 68% 76.38 0.0
07 14:15 E 7 16.09 Partly Cloudy SCT120 18 12 68% 76.38 0.0
07 13:55 SE 11 16.09 Mostly Cloudy BKN110 18 12 68% 76.38 0.0
07 13:35 E 9 16.09 Mostly Cloudy BKN110 18 12 68% 76.38 0.0
07 13:15 E 13 16.09 Overcast OVC110 17 12 73% 76.35 0.0
07 12:55 E 7 16.09 Mostly Cloudy BKN110 17 12 18.5 11.5 73% 76.4 0.0
07 12:35 E 13 16.09 Mostly Cloudy BKN110 18 11 64% 76.43 0.0
07 12:15 E 15 16.09 Fair CLR 18 11 64% 76.43 0.0
07 11:55 NE 13 16.09 Fair CLR 18 11 64% 76.45 0.0
07 11:35 NE 15 16.09 Fair CLR 17 11 68% 76.45 0.0
07 11:15 NE 15 16.09 Fair CLR 17 11 68% 76.45 0.0
07 10:55 NE 17 G 28 16.09 Fair CLR 17 11 68% 76.45 0.0
07 10:35 NE 19 G 28 16.09 Fair CLR 17 12 73% 76.45 0.0
07 10:15 NE 19 16.09 Fair CLR 16 11 72% 76.45 0.0
07 09:55 NE 15 16.09 Fair CLR 16 11 72% 76.45 0.0
07 09:35 NE 19 G 26 16.09 Fair CLR 15 11 77% 76.48 0.0
07 09:15 NE 19 16.09 Fair CLR 14 11 82% 76.48 0.0
07 08:55 NE 20 16.09 Fair CLR 14 11 82% 76.48 0.0
07 08:35 NE 20 16.09 Fair CLR 12 11 94% 76.5 0.0
07 08:15 NE 19 16.09 Fair CLR 12 11 94% 76.53 0.0
07 07:55 N 19 16.09 Fair CLR 12 11 94% 76.5 0.0
07 07:35 N 20 16.09 A Few Clouds FEW017 12 11 94% 76.48 0.0
07 07:15 N 24 16.09 Mostly Cloudy BKN017 12 12 100% 76.45 0.0
07 06:55 N 22 16.09 Overcast OVC015 12 12 13.3 12.1 100% 76.48 0.0
07 06:35 N 19 16.09 Overcast OVC015 12 12 100% 76.48 0.0
07 06:15 N 22 16.09 Overcast OVC013 12 12 100% 76.45 0.0
07 05:55 N 17 14.48 Overcast OVC013 13 12 94% 76.45 0.0
07 05:35 N 13 14.48 Overcast OVC013 13 13 100% 76.45 0.0
07 05:15 N 20 14.48 Overcast OVC011 13 13 100% 76.4 0.0
07 04:55 N 9 14.48 Overcast OVC011 13 13 100% 76.43 0.0
07 04:35 NE 13 14.48 Overcast OVC011 13 13 100% 76.43 0.0
07 04:15 NE 9 14.48 Overcast OVC011 13 12 94% 76.38 0.0
07 03:55 NE 9 14.48 Overcast OVC013 13 13 100% 76.35 0.0
07 03:35 N 19 G 31 16.09 Overcast OVC013 12 12 100% 76.28 0.0
07 03:15 N 20 14.48 Overcast OVC015 12 12 100% 76.25 0.0
07 02:55 N 17 12.87 Overcast FEW010 OVC019 12 12 100% 76.25 0.0
07 02:15 NE 13 12.87 Overcast BKN010 OVC013 13 13 100% 76.28 0.0
07 01:55 NE 9 12.87 Overcast OVC010 13 13 100% 76.28 0.0
07 01:35 NE 7 12.87 Mostly Cloudy BKN010 13 13 100% 76.25 0.0
07 01:15 NE 9 12.87 Partly Cloudy SCT012 13 13 100% 76.23 0.0
07 00:55 NE 9 14.48 Fair CLR 13 13 16.2 12.7 100% 76.23 0.0
07 00:35 NE 13 14.48 Fair CLR 13 13 100% 76.25 0.0
07 00:15 NE 15 14.48 A Few Clouds FEW015 13 13 100% 76.23 0.0
06 23:55 NE 17 16.09 A Few Clouds FEW015 13 13 100% 76.23 0.0
06 23:35 NE 13 16.09 Fair CLR 13 13 100% 76.23 0.0
06 23:15 NE 11 16.09 Fair CLR 13 13 100% 76.23 0.0
06 22:55 NE 11 16.09 Fair CLR 14 13 94% 76.25 0.0
06 22:35 NE 13 16.09 Fair CLR 13 13 100% 76.23 0.0
06 22:15 NE 7 14.48 A Few Clouds FEW065 14 13 94% 76.23 0.0
06 21:55 NE 11 14.48 Partly Cloudy SCT075 14 13 94% 76.2 0.0
06 21:35 NE 9 16.09 Partly Cloudy SCT075 14 13 94% 76.2 0.0
06 21:15 N 9 16.09 Fair CLR 14 13 94% 76.17 0.0
06 20:55 N 9 16.09 Fair CLR 14 13 94% 76.17 0.0
06 20:35 N 9 16.09 Fair CLR 14 13 94% 76.12 0.0
06 20:15 N 11 16.09 A Few Clouds FEW029 15 13 88% 76.1 0.0
06 19:55 N 13 16.09 Overcast OVC029 16 13 83% 76.07 0.0
06 19:35 N 17 16.09 Overcast OVC027 16 13 83% 76.07 0.0
06 19:15 N 19 16.09 Overcast OVC025 16 13 83% 76.05 0.0
06 18:55 N 19 16.09 Overcast OVC023 16 13 16.9 12.1 83% 76.05 0.0
06 18:35 N 19 14.48 Overcast OVC025 16 14 88% 76.05 0.0
06 18:15 N 17 14.48 Overcast OVC025 16 13 83% 76.05 0.0
06 17:55 N 15 14.48 Overcast OVC023 16 13 83% 76.02 0.0
06 17:35 N 17 16.09 Overcast OVC023 16 13 83% 76.02 0.0
06 17:15 NE 15 16.09 Overcast OVC021 16 13 83% 76 0.0
06 16:55 N 13 16.09 Overcast OVC019 16 13 83% 76 0.0
06 16:35 N 15 16.09 Overcast OVC019 17 13 77% 76.02 0.0
06 16:15 N 15 16.09 Overcast OVC019 16 13 83% 76.02 0.0
06 15:55 NW 17 16.09 Overcast OVC017 16 13 83% 76.05 0.0
06 15:35 N 17 14.48 Overcast BKN013 OVC017 15 13 88% 76.05 0.0
06 15:15 N 19 14.48 Overcast OVC011 14 12 88% 76.07 0.0
06 14:55 N 22 14.48 Overcast OVC011 14 12 88% 76.07 0.0
06 14:35 N 24 14.48 Overcast OVC009 13 12 94% 76.07 0.0
06 14:15 N 20 14.48 Overcast OVC009 13 12 94% 76.1 0.0
06 13:55 N 20 12.87 Overcast OVC009 12 12 100% 76.1 0.0
06 13:35 N 26 12.87 Overcast OVC009 12 12 100% 76.12 0.0
06 13:15 N 24 14.48 Overcast OVC009 12 12 100% 76.1 0.0
06 12:55 N 26 12.87 Overcast OVC009 13 12 14.3 10.5 94% 76.1 0.0
06 12:35 N 19 14.48 Overcast OVC007 12 12 100% 76.1 0.0
06 12:15 N 17 14.48 Overcast OVC007 12 12 100% 76.12 0.0
06 11:55 N 11 14.48 Overcast OVC007 11 11 100% 76.1 0.0
06 11:35 N 31 12.87 Overcast OVC007 11 11 100% 76 0.0
06 11:15 N 28 12.87 Overcast OVC007 11 11 100% 76.05 0.0
06 10:55 NE 17 12.87 Light Drizzle OVC009 11 11 100% 76.02 0.0 0.08
06 10:35 N 20 9.66 Light Rain Fog/Mist BKN009 BKN013 11 11 100% 76.07 0.0
06 10:15 N 15 9.66 Light Rain Fog/Mist FEW055 FEW070 FEW110 11 11 100% 76 0.0
06 09:55 NE 20 9.66 Light Rain Fog/Mist SCT011 BKN065 OVC100 11 11 100% 76 0.0
06 09:35 N 30 12.87 Thunderstorm in Vicinity OVC009 11 11 100% 76.07 0.0
06 09:15 N 30 G 37 12.87 Thunderstorm in Vicinity OVC011 11 11 100% 76.1 0.0
06 08:55 N 30 G 37 12.87 Overcast OVC011 12 11 94% 76.1 0.0
06 08:35 N 31 12.87 Overcast OVC011 12 11 94% 76 0.0
06 08:15 N 24 12.87 Overcast OVC011 13 12 94% 75.95 0.0
Date Time (cdt) Wind (kph) Vis. (km) Weather Sky Cond. Air Dwpt Max. Min. Relative Humidity Wind Chill (°C) Heat Index (°C) altimeter (cm) sea level (mb) 1 hr 3 hr 6 hr
6 hour
Temperature (ºC) Pressure Precipitation (cm)